Location: Hurstbourne Priors
(51.2000°N, 1.3667°W)
Time: 13:28:46
(UTC+00:00)

Cosmos 2218 Rocket - Pass Details

Date: 09 April 2020
Orbit: 957 x 1005 km, 82.9° (Epoch: 02 June)

Event Time Altitude Azimuth Distance (km) Brightness Sun altitude
Rises 20:53:35 0° 348° (NNW) 3,667 7.8 -17.7°
Reaches altitude 10° 20:56:05 10° 348° (NNW) 2,721 7.1 -18.0°
Maximum altitude 21:02:18 77° 263° (W) 1,007 4.1 -18.8°
Enters shadow 21:07:09 18° 180° (S) 2,217 5.5 -19.3°
